Regional Weather Roundup
Issued by NWS

Home | Current Version | Previous Version | Text Only | Print | Product List | Glossary Off
Versions: 1 2 3 4 5 6 7 8 9 10 11 12 13 14 15 16 17 18 19 20 21 22 23 24 25 26 27 28

000
ASUS45 KCYS 280610
RWRWY

WYOMING REGIONAL WEATHER ROUNDUP
NATIONAL WEATHER SERVICE CHEYENNE WY
1200 AM MDT SUN AUG 28 2016

NOTE:  "FAIR" INDICATES FEW OR NO CLOUDS BELOW 12,000 FEET
WITH NO SIGNIFICANT WEATHER AND/OR OBSTRUCTIONS TO VISIBILITY.

WYZ001-280700-
YELLOWSTONE NATIONAL PARK

CITY           SKY/WX    TMP DP  RH WIND       PRES   REMARKS
LK YELLOWSTONE   N/A     40  29  64 NW3       30.24S
6HR MIN TEMP:  40; 6HR MAX TEMP:  65;

W YELLOWSTONE  NOT AVBL

$$
WYZ002>013-054>058-071-098>099-280700-
NORTHERN WYOMING

CITY           SKY/WX    TMP DP  RH WIND       PRES   REMARKS
JACKSON        FAIR      48  28  46 CALM      30.16R
CODY           FAIR      64  30  27 S8        30.00R
GREYBULL       FAIR      65  31  28 SW5       29.92S
6HR MIN TEMP:  64; 6HR MAX TEMP:  84;

WORLAND        FAIR      60  36  40 W8        29.94R
6HR MIN TEMP:  60; 6HR MAX TEMP:  85;

SHERIDAN       FAIR      52  42  69 W5        29.91S
6HR MIN TEMP:  52; 6HR MAX TEMP:  83;

BUFFALO        FAIR      66  29  24 S6        30.00S
6HR MIN TEMP:  63; 6HR MAX TEMP:  81;

GILLETTE       FAIR      53  41  63 S8        29.95F
6HR MIN TEMP:  52; 6HR MAX TEMP:  81;

HULETT         FAIR      57  45  62 S6        29.96F
NEWCASTLE      FAIR      68  37  32 E9        29.99S

$$
WYZ014>020-022>026-101>103-280700-
CENTRAL WYOMING

CITY           SKY/WX    TMP DP  RH WIND       PRES   REMARKS
BIG PINEY      FAIR      46  30  53 CALM      30.22R
6HR MIN TEMP:  46; 6HR MAX TEMP:  76;

PINEDALE       FAIR      43  32  65 N6        30.23R
DUBOIS         FAIR      52  19  28 NW10      30.19R
LANDER         FAIR      64  27  24 W7        30.06R
6HR MIN TEMP:  64; 6HR MAX TEMP:  81;

RIVERTON       FAIR      64  27  24 NW13      30.06S
6HR MIN TEMP:  59; 6HR MAX TEMP:  79;

CASPER         FAIR      53  39  59 W6        30.05R
6HR MIN TEMP:  51; 6HR MAX TEMP:  80;

DOUGLAS        FAIR      51  36  56 CALM      30.04S
6HR MIN TEMP:  51; 6HR MAX TEMP:  83;


$$
WYZ021-027>030-104>119-280700-
SOUTHERN WYOMING

CITY           SKY/WX    TMP DP  RH WIND       PRES   REMARKS
EVANSTON       FAIR      54  24  31 E7        30.24R
6HR MIN TEMP:  54; 6HR MAX TEMP:  74;

FORT BRIDGER   FAIR      54  24  31 S9        30.26S
ROCK SPRINGS   FAIR      58  20  22 S8        30.21R
6HR MIN TEMP:  58; 6HR MAX TEMP:  78;

DIXON          FAIR      53  30  42 CALM      30.25R
RAWLINS        FAIR      56  25  30 SW7       30.20R
6HR MIN TEMP:  56; 6HR MAX TEMP:  76;

SARATOGA       FAIR      50  30  46 SE8       30.24R
LARAMIE        FAIR      47  32  56 S9        30.24S
6HR MIN TEMP:  47; 6HR MAX TEMP:  72;

CHEYENNE       FAIR      60  39  45 CALM      30.17S
6HR MIN TEMP:  56; 6HR MAX TEMP:  78;

TORRINGTON     FAIR      64  46  52 SE7       30.02R
6HR MIN TEMP:  63; 6HR MAX TEMP:  82;

PINE BLUFFS    FAIR      55  45  67 W3        30.12S

$$




USA.gov is the U.S. government's official web portal to all federal, state and local government web resources and services.